This is the latest recevied weather packets stored in our database for station/object WC4PEM-4. If no packets are shown the sender has not sent any weather packets the latest 10 day(s).
| Time | Temp. | Humidity | Pressure | Rain* | Wind** | Luminosity | Snow |
|---|---|---|---|---|---|---|---|
| 1788539471 | 31.67° C | 69% | 1015.9 hPa | 0 mm | - | - | - |
| 1788539171 | 31.67° C | 67% | 1015.8 hPa | 0 mm | - | - | - |
| 1788538871 | 31.67° C | 69% | 1015.9 hPa | 0 mm | - | - | - |
| 1788538683 | 31.67° C | 69% | 1016 hPa | 0 mm | - | - | - |
| 1788538571 | 31.67° C | 69% | 1016 hPa | 0 mm | - | - | - |
| 1788538530 | 31.67° C | 70% | 1016.1 hPa | 0 mm | - | - | - |
| 1788538271 | 31.67° C | 70% | 1016.1 hPa | 0 mm | - | - | - |
| 1788537971 | 31.67° C | 70% | 1016.1 hPa | 0 mm | - | - | - |
| 1788537671 | 31.11° C | 73% | 1016.1 hPa | 0 mm | - | - | - |
| 1788537371 | 30.56° C | 76% | 1016.1 hPa | 0 mm | - | - | - |
| 1788537071 | 30.56° C | 75% | 1016.1 hPa | 0 mm | - | - | - |
| 1788536771 | 30.56° C | 75% | 1016.4 hPa | 0 mm | - | - | - |
| 1788536471 | 30.56° C | 74% | 1016.2 hPa | 0 mm | - | - | - |
| 1788536171 | 30.56° C | 73% | 1016.3 hPa | 0 mm | - | - | - |
| 1788535871 | 30.56° C | 76% | 1016.3 hPa | 0 mm | - | - | - |
| 1788535736 | 30.56° C | 75% | 1016.3 hPa | 0 mm | - | - | - |
| 1788535571 | 30.56° C | 75% | 1016.3 hPa | 0 mm | - | - | - |
| 1788535271 | 30.56° C | 75% | 1016.1 hPa | 0 mm | - | - | - |
| 1788534971 | 30.56° C | 75% | 1016.2 hPa | 0 mm | - | - | - |
| 1788534671 | 30.56° C | 75% | 1016.2 hPa | 0 mm | - | - | - |
| 1788534371 | 30.56° C | 75% | 1016.2 hPa | 0 mm | - | - | - |
| 1788534279 | 30.56° C | 76% | 1016.1 hPa | 0 mm | - | - | - |
| 1788534071 | 30.56° C | 76% | 1016.1 hPa | 0 mm | - | - | - |
| 1788533771 | 30.56° C | 76% | 1015.9 hPa | 0 mm | - | - | - |
| 1788533573 | 30° C | 79% | 1015.9 hPa | 0 mm | - | - | - |
* Rain latest hour (hover to see other rain measurements)
** Current wind speed in m/s (hover to see current wind gust speed)